Campo, CA

9:32 PM PDT on August 25, 2019 (GMT -0700)
Campo

Weather History for KCZZ - June, 2019

Change the Weather History Date:

Sunday, June 9, 2019

  Actual Average Record
Temperature  
Mean Temperature 71 °F 64 °F  
Max Temperature 92 °F 85 °F 100 °F (2014)
Min Temperature 49 °F 44 °F 33 °F (1982)
Degree Days  
Heating Degree Days 0 2  
Month to date heating degree days 17 27  
Since 1 June heating degree days 17 27  
Since 1 July heating degree days 3032 2954  
Cooling Degree Days 6 2  
Month to date cooling degree days 18 18  
Year to date cooling degree days 20 48  
Since 1 June cooling degree days 18 18  
Growing Degree Days 20 (Base 50)    
Moisture  
Dew Point 38 °F    
Average Humidity 44    
Maximum Humidity 77    
Minimum Humidity 11    
Precipitation  
Precipitation 0.00 in 0.00 in 0.17 in (1990)
Month to date precipitation 0.00 0.03  
Year to date precipitation 12.74 10.07  
Sea Level Pressure  
Sea Level Pressure 29.90 in    
Wind  
Wind Speed 14 mph (NE)    
Max Wind Speed 31 mph    
Max Gust Speed 39 mph    
T = Trace of Precipitation, MM = Missing Value Source: NWS Daily Summary

Daily Weather History Graph

Daily Weather History Graph

Search for Another Location

Airport or City:

Astronomy

Jun. 09, 2019 Rise Set
Actual Time 5:37 AM PDT 7:52 PM PDT
Civil Twilight 5:09 AM PDT 8:21 PM PDT
Nautical Twilight 4:34 AM PDT 8:55 PM PDT
Astronomical Twilight 3:57 AM PDT 9:33 PM PDT
Moon 12:09 PM PDT (6/9) 12:45 AM PDT (6/9)
Length of Visible Light 15h 11m
Length of Day
14h 14m
Waxing Crescent, 45% of the Moon is Illuminated
Jun 9
Waxing Crescent
Jun 9
First Quarter
Jun 17
Full
Jun 25
Last Quarter
Jul 2
New

Hourly Weather History & Observations

Time (PDT) Temp. Dew Point Humidity Pressure Visibility Wind Dir Wind Speed Gust Speed Precip Events Conditions
12:52 AM 53.1 °F 46.0 °F 77% 29.88 in - NNE 4.6 mph - N/A   Unknown
1:52 AM 51.1 °F 44.1 °F 77% 29.88 in - NE 5.8 mph - N/A   Unknown
2:52 AM 52.0 °F 44.1 °F 74% 29.88 in - NE 5.8 mph - N/A   Unknown
3:52 AM 50.0 °F 42.1 °F 74% 29.88 in - NE 6.9 mph - N/A   Unknown
4:52 AM 52.0 °F 44.1 °F 74% 29.88 in - NE 5.8 mph - N/A   Unknown
5:52 AM 51.1 °F 44.1 °F 77% 29.90 in - NNE 4.6 mph - N/A   Unknown
6:52 AM 57.0 °F 48.0 °F 72% 29.90 in - Calm Calm - N/A   Unknown
7:52 AM 75.9 °F 50.0 °F 40% 29.88 in - NE 9.2 mph - N/A   Unknown
8:52 AM 84.0 °F 35.1 °F 17% 29.89 in - ENE 20.7 mph 29.9 mph N/A   Unknown
9:52 AM 84.9 °F 35.1 °F 17% 29.91 in - ENE 21.9 mph 31.1 mph N/A   Unknown
10:52 AM 86.0 °F 37.0 °F 18% 29.92 in - ENE 25.3 mph 35.7 mph N/A   Unknown
11:52 AM 87.1 °F 35.1 °F 16% 29.91 in - ENE 28.8 mph 36.8 mph N/A   Unknown
12:52 PM 88.0 °F 37.0 °F 16% 29.91 in - NE 23.0 mph 33.4 mph N/A   Unknown
1:52 PM 89.1 °F 36.0 °F 15% 29.92 in - ENE 19.6 mph 32.2 mph N/A   Unknown
2:52 PM 91.9 °F 37.0 °F 15% 29.90 in - NE 19.6 mph 31.1 mph N/A   Unknown
3:52 PM 91.0 °F 30.0 °F 11% 29.89 in - ENE 19.6 mph 28.8 mph N/A   Unknown
4:52 PM 90.0 °F 28.0 °F 11% 29.88 in - ENE 21.9 mph 27.6 mph N/A   Unknown
5:52 PM 89.1 °F 26.1 °F 10% 29.88 in - NE 16.1 mph - N/A   Unknown
6:52 PM 87.1 °F 28.0 °F 12% 29.88 in - NE 10.4 mph - N/A   Unknown
7:52 PM 77.0 °F 37.0 °F 24% 29.89 in - Calm Calm - N/A   Unknown
8:52 PM 66.9 °F 39.0 °F 36% 29.92 in - Calm Calm - N/A   Unknown
9:52 PM 62.1 °F 35.1 °F 37% 29.94 in - ENE 5.8 mph - N/A   Unknown
10:52 PM 55.9 °F 36.0 °F 47% 29.96 in - NNE 4.6 mph - N/A   Unknown
11:52 PM 57.0 °F 36.0 °F 45% 29.95 in - NE 3.5 mph - N/A   Unknown